Rexburg, ID

8:23 AM MDT on March 28, 2017 (GMT -0600)
Rexburg-Madison County

Weather History for KRXE - September, 2013

Change the Weather History Date:

Friday, September 27, 2013

  Actual Average Record
Temperature  
Mean Temperature 44 °F 51 °F  
Max Temperature 53 °F 67 °F 85 °F (2001)
Min Temperature 35 °F 36 °F 29 °F (2000)
Degree Days  
Heating Degree Days 21 14  
Month to date heating degree days 113 242  
Since 1 July heating degree days 113 315  
Cooling Degree Days 0 0  
Month to date cooling degree days 39 5  
Year to date cooling degree days 452 207  
Moisture  
Dew Point 31 °F    
Average Humidity 62    
Maximum Humidity 92    
Minimum Humidity 32    
Precipitation  
Precipitation 0.12 in 0.04 in 1.12 in (2014)
Month to date precipitation 1.15 0.86  
Year to date precipitation 6.43 9.78  
Sea Level Pressure  
Sea Level Pressure 29.99 in    
Wind  
Wind Speed 7 mph (SW)    
Max Wind Speed 21 mph    
Max Gust Speed 28 mph    
Visibility 10 miles    
Events Rain    
T = Trace of Precipitation, MM = Missing Value Source: NWS Daily Summary

Daily Weather History Graph

Daily Weather History Graph

Search for Another Location

Airport or City:

Trip Planner

Search our weather history database for the weather conditions in past years. The results will help you decide how hot, cold, wet, or windy it might be!

Date:

Astronomy

Sep. 27, 2013 Rise Set
Actual Time 7:20 AM MDT 7:14 PM MDT
Civil Twilight 6:51 AM MDT 7:43 PM MDT
Nautical Twilight 6:18 AM MDT 8:16 PM MDT
Astronomical Twilight 5:44 AM MDT 8:50 PM MDT
Moon 12:08 AM MDT (9/27) 3:06 PM MDT (9/27)
Length of Visible Light 12h 51m
Length of Day
11h 54m
Last Quarter, 44% of the Moon is Illuminated
Sep 27
Last Quarter
Oct 4
New
Oct 11
First Quarter
Oct 18
Full
Oct 26
Last Quarter

Hourly Weather History & Observations

Time (MDT) Temp. Windchill Dew Point Humidity Pressure Visibility Wind Dir Wind Speed Gust Speed Precip Events Conditions
12:53 AM 39.9 °F - 34.0 °F 79% 29.89 in 10.0 mi Calm Calm - N/A   Overcast
1:53 AM 39.9 °F - 34.0 °F 79% 29.90 in 10.0 mi Calm Calm - N/A   Overcast
2:36 AM 39.2 °F 37.0 °F 33.8 °F 81% 29.91 in 9.0 mi ESE 3.5 mph - 0.01 in Rain Light Rain
2:53 AM 37.9 °F - 35.1 °F 89% 29.91 in 10.0 mi Calm Calm - 0.02 in Rain Light Rain
3:38 AM 37.4 °F 33.8 °F 33.8 °F 87% 29.92 in 9.0 mi WNW 4.6 mph - 0.03 in Rain Light Rain
3:53 AM 36.0 °F - 34.0 °F 93% 29.92 in 10.0 mi Calm Calm - 0.04 in Rain Light Rain
4:18 AM 37.4 °F - 33.8 °F 87% 29.92 in 10.0 mi Calm Calm - 0.01 in Rain Light Rain
4:46 AM 37.4 °F - 33.8 °F 87% 29.92 in 10.0 mi Calm Calm - 0.01 in Rain Light Rain
4:53 AM 37.0 °F - 34.0 °F 89% 29.93 in 9.0 mi Calm Calm - 0.02 in Rain Light Rain
5:53 AM 36.0 °F 32.1 °F 33.1 °F 89% 29.95 in 10.0 mi WNW 4.6 mph - 0.02 in Rain Light Rain
6:18 AM 35.6 °F 29.9 °F 33.8 °F 93% 29.94 in 10.0 mi West 6.9 mph - 0.00 in Rain Light Rain
6:53 AM 35.1 °F 30.1 °F 33.1 °F 92% 29.98 in 10.0 mi West 5.8 mph - 0.01 in Rain Light Rain
7:53 AM 36.0 °F 32.1 °F 33.1 °F 89% 29.99 in 10.0 mi WNW 4.6 mph - 0.00 in Rain Light Rain
8:53 AM 37.9 °F - 33.1 °F 83% 30.00 in 10.0 mi Calm Calm - 0.01 in   Overcast
9:53 AM 39.0 °F 34.8 °F 30.9 °F 73% 30.01 in 10.0 mi WNW 5.8 mph - N/A   Overcast
10:53 AM 41.0 °F 39.0 °F 30.0 °F 65% 30.01 in 10.0 mi West 3.5 mph - N/A   Overcast
11:53 AM 44.1 °F 41.5 °F 28.0 °F 53% 30.01 in 10.0 mi WSW 4.6 mph - N/A   Overcast
12:53 PM 46.0 °F 41.4 °F 30.9 °F 56% 30.01 in 10.0 mi SSW 9.2 mph - N/A   Overcast
1:53 PM 48.0 °F - 28.9 °F 48% 30.00 in 10.0 mi SW 9.2 mph - N/A   Overcast
2:53 PM 48.9 °F - 24.1 °F 38% 30.01 in 10.0 mi West 5.8 mph - N/A   Overcast
3:53 PM 52.0 °F - 23.0 °F 32% 30.01 in 10.0 mi WSW 9.2 mph 16.1 mph N/A   Mostly Cloudy
4:53 PM 52.0 °F - 26.1 °F 37% 30.01 in 10.0 mi SSW 10.4 mph - N/A   Mostly Cloudy
5:53 PM 50.0 °F - 28.9 °F 44% 30.04 in 10.0 mi SSW 13.8 mph - N/A   Partly Cloudy
6:53 PM 48.0 °F - 30.9 °F 52% 30.04 in 10.0 mi South 9.2 mph - N/A   Partly Cloudy
7:53 PM 45.0 °F 39.7 °F 30.9 °F 58% 30.06 in 10.0 mi South 10.4 mph - N/A   Clear
8:53 PM 44.1 °F 38.6 °F 30.9 °F 60% 30.08 in 10.0 mi South 10.4 mph - N/A   Mostly Cloudy
9:53 PM 45.0 °F 39.3 °F 30.9 °F 58% 30.09 in 10.0 mi SSW 11.5 mph - N/A   Overcast
10:53 PM 43.0 °F 36.4 °F 30.9 °F 62% 30.09 in 10.0 mi South 12.7 mph - N/A   Overcast
11:53 PM 43.0 °F 36.8 °F 30.9 °F 62% 30.08 in 10.0 mi SSW 11.5 mph - N/A   Overcast